FENGYUN 1C DEB

Satellite information

Favourite Embed

Satellite Type and Status

DEBRISIN ORBIT

Key statistics

Satellite FENGYUN 1C DEB at a glance.

Uptime

9556

Days in orbit

Revolutions

≈ 14.0

Per day

Orbit

SSO

Sun Synchronous Orbit

Inclination

99.4

Latest

Satellite identification and parameters

Extended collection of information and parameters for FENGYUN 1C DEB.

Object identification

Identified? True

Debris? True

Object name: FENGYUN 1C DEB

International designator: 1999-025BEA

Object number (NORAD): 31032

Object ID (CCSDS): 31032

Country: PEOPLES REPUBLIC OF CHINA (PRC)

Current information (Y/N): Y

RCS size: SMALL

Orbital parameters

Period: 102.766 minutes

Inclination: 99.4014 deg

SMA: 7267.65 km

Apoapsis: 991.052 km

Periapsis: 787.977 km

RAAN: 192.6988 deg

Eccentricy: 0.0139712

Argument of periapsis: 268.7705 deg

Mean anomaly: 145.7155 deg

Mean motion: 14.01237613 rev/day

Mean motion (dot): 0.00001706 rev/day2

B* drag term: 0.0010709 1/REarth

Two-line elements (TLE)

Creation date: July 8, 2025, 2:27 a.m.

Reference frame: TEME

Reference center: EARTH

Epoch: July 7, 2025, 5:37 p.m. UTC

TLE line 0: 0 FENGYUN 1C DEB

TLE line 1: 1 31032U 99025BEA 25188.73464999 .00001706 00000-0 10709-2 0 9992

TLE line 2: 2 31032 99.4014 192.6988 0139712 268.7705 145.7155 14.01237613927687

Live tracking on map

Real-time ground track for satellite FENGYUN 1C DEB.

In-orbit conjunctions

A list of the most updated potential collisions computed for object FENGYUN 1C DEB.

Target Orbit TCA Probability of collision Miss distance Type
SL-14 R/B LEO 2025-02-26 16:19:23 0.0002552829 187.0 (m) ROCKET BODY
COSMOS 2074 LEO 2024-12-03 14:15:54 0.000383291 345.0 (m) PAYLOAD

Associated space launch

Chinese polar orbiting meteorological satellite

FENGYUN 1C DEB was lifted into orbit during the mission ‘Long March 4B | Feng Yun 1C’, on board a Long March 4B space rocket.

The launch took place on May 10, 1999, 1:33 a.m. from Launch Complex 7.

For more information about the launch, click the button.

Launch to space Long March 4B | Feng Yun 1C
Long March 4B | Feng Yun 1C

Agency: N/A

Status: Launch Successful

Launch date: May 10, 1999, 1:33 a.m. UTC

Rocket: Long March 4B

Launch pad: Launch Complex 7

Location: Taiyuan Satellite Launch Center, People's Republic of China

...

Latest news about this satellite

There are no fresh news available about this satellite. Check back as we update our databases every day.


Newsletter sign-up

Weekly statistics, charts and insights to help you stay on top of the space industry.